Miles City, MT

4:27 PM MDT on September 28, 2016 (GMT -0600)
Wiley

Weather History for KMLS - December, 2011

Change the Weather History Date:

Tuesday, December 13, 2011

  Actual Average Record
Temperature  
Mean Temperature 24 °F 20 °F  
Max Temperature 25 °F 31 °F 54 °F (1988)
Min Temperature 22 °F 10 °F -25 °F (1985)
Degree Days  
Heating Degree Days 41 45  
Month to date heating degree days 541 558  
Since 1 July heating degree days 2085 2357  
Cooling Degree Days 0 0  
Month to date cooling degree days 0 0  
Year to date cooling degree days 763 730  
Moisture  
Dew Point 20 °F    
Average Humidity 89    
Maximum Humidity 96    
Minimum Humidity 81    
Precipitation  
Precipitation 0.00 in 0.00 in 0.33 in (1951)
Month to date precipitation 0.02 0.10  
Year to date precipitation 18.67 12.25  
Sea Level Pressure  
Sea Level Pressure 30.02 in    
Wind  
Wind Speed 6 mph (SSE)    
Max Wind Speed 10 mph    
Max Gust Speed 13 mph    
Visibility 8 miles    
Events      
T = Trace of Precipitation, MM = Missing Value Source: NWS Daily Summary

Daily Weather History Graph

Daily Weather History Graph

Search for Another Location

Airport or City:

Trip Planner

Search our weather history database for the weather conditions in past years. The results will help you decide how hot, cold, wet, or windy it might be!

Date:

Astronomy

Dec. 13, 2011 Rise Set
Actual Time 7:38 AM MST 4:16 PM MST
Civil Twilight 7:03 AM MST 4:51 PM MST
Nautical Twilight 6:25 AM MST 5:29 PM MST
Astronomical Twilight 5:48 AM MST 6:06 PM MST
Moon 7:41 PM MST (12/13) 9:44 AM MST (12/13)
Length of Visible Light 9h 47m
Length of Day
8h 38m
Waning Gibbous, 90% of the Moon is Illuminated
Dec 13
Waning Gibbous
Dec 17
Last Quarter
Dec 24
New
Dec 31
First Quarter
Jan 9
Full

Hourly Weather History & Observations

Time (MST) Temp. Windchill Dew Point Humidity Pressure Visibility Wind Dir Wind Speed Gust Speed Precip Events Conditions
12:53 AM 24.1 °F 17.0 °F 21.0 °F 88% 30.18 in 9.0 mi SSE 5.8 mph - N/A   Overcast
1:53 AM 24.1 °F 18.2 °F 19.9 °F 84% 30.15 in 9.0 mi SE 4.6 mph - N/A   Overcast
2:53 AM 23.0 °F 14.7 °F 19.9 °F 88% 30.15 in 9.0 mi SE 6.9 mph - N/A   Overcast
3:53 AM 23.0 °F 14.7 °F 19.9 °F 88% 30.13 in 9.0 mi SE 6.9 mph - N/A   Overcast
4:53 AM 23.0 °F 14.7 °F 19.9 °F 88% 30.13 in 9.0 mi SE 6.9 mph - N/A   Overcast
5:53 AM 23.0 °F 11.7 °F 19.0 °F 85% 30.12 in 10.0 mi SE 11.5 mph - N/A   Overcast
6:53 AM 21.9 °F 13.4 °F 19.0 °F 89% 30.11 in 10.0 mi SE 6.9 mph - N/A   Overcast
7:53 AM 21.9 °F 13.4 °F 19.0 °F 89% 30.10 in 10.0 mi SSE 6.9 mph - N/A   Overcast
8:53 AM 21.9 °F 14.5 °F 19.0 °F 89% 30.10 in 8.0 mi SSE 5.8 mph - N/A   Overcast
9:53 AM 23.0 °F 17.0 °F 19.9 °F 88% 30.09 in 8.0 mi SSE 4.6 mph - N/A   Overcast
10:53 AM 24.1 °F - 21.0 °F 88% 30.06 in - North - - N/A   Overcast
11:53 AM 25.0 °F 19.3 °F 21.0 °F 85% 30.04 in 6.0 mi SSW 4.6 mph - N/A   Overcast
12:53 PM 24.1 °F 18.2 °F 21.0 °F 88% 30.02 in 6.0 mi SSE 4.6 mph - N/A   Overcast
1:53 PM 25.0 °F 20.7 °F 21.0 °F 85% 29.99 in 7.0 mi SSE 3.5 mph - N/A   Overcast
2:53 PM 25.0 °F 19.3 °F 21.0 °F 85% 29.99 in 9.0 mi South 4.6 mph - N/A   Overcast
3:53 PM 25.0 °F 19.3 °F 21.0 °F 85% 29.99 in 10.0 mi SSW 4.6 mph - N/A   Overcast
4:53 PM 25.0 °F 19.3 °F 21.0 °F 85% 29.97 in 9.0 mi SSE 4.6 mph - N/A   Overcast
5:53 PM 24.1 °F 17.0 °F 21.0 °F 88% 29.96 in 10.0 mi SSE 5.8 mph - N/A   Overcast
6:53 PM 24.1 °F 15.2 °F 21.0 °F 88% 29.96 in 10.0 mi SSW 8.1 mph - N/A   Overcast
7:53 PM 23.0 °F - 21.0 °F 92% 29.95 in 8.0 mi Calm Calm - N/A   Overcast
8:53 PM 23.0 °F 17.0 °F 21.0 °F 92% 29.93 in 7.0 mi SSE 4.6 mph - N/A   Overcast
9:53 PM 23.0 °F 14.7 °F 21.0 °F 92% 29.91 in 7.0 mi SSE 6.9 mph - N/A   Overcast
10:53 PM 23.0 °F 13.9 °F 21.0 °F 92% 29.90 in 7.0 mi SSE 8.1 mph - N/A   Overcast
11:24 PM 23.0 °F 15.8 °F 21.2 °F 93% 29.79 in 5.0 mi SSE 5.8 mph - N/A   Overcast
11:53 PM 23.0 °F 15.8 °F 21.0 °F 92% 29.89 in 2.0 mi South 5.8 mph - N/A   Overcast